Flag for U.S.A. Weather past 2 weeks in Metlakatla, Alaska, U.S.A.

Now
39 °F

Clear.


Feels Like: 36 °F
Forecast: 38 / 45 °F
Wind: 5 mph from East

Location: Metlakatla - Metlakatla Seaplane Base

Current Time: Mar 3, 2015 at 1:33:06 AM

Latest Report: Mar 3, 2015 at 12:56 AM


Visibility: 10 mi

Pressure: 30.31 "Hg

Humidity: 56%

Dew point: 25 °F

Location of MetlakatlaLocation

Historic Weather in Metlakatla — Graph

°F

Metlakatla temperature yesterday

Maximum temperature yesterday: 48 °F (at 2:56 PM)
Minimum temperature yesterday: 37 °F (at 11:56 PM)
Average temperature yesterday: 44 °F

Past Weeks' High & Low Weather Summary

 TemperatureHumidityPressure
High52 °F (Feb 18, 4:36 AM)93% (Feb 18, 6:36 PM)30.54 "Hg (Feb 18, 6:36 PM)
Low36 °F (Feb 20, 4:36 AM)37% (Feb 27, 10:16 AM)29.90 "Hg (Feb 18, 6:36 AM)
Average43 °F73%30.31 "Hg
* Reported Feb 16 12:16 AM — Mar 3 12:36 AM, Metlakatla, Weather by CustomWeather, © 2015

Note: Actual official high and low records may vary slightly from our data, if they occured in-between our weather recording intervals... More about our weather records

Advertising

Metlakatla weather history for previous 24 hours

 ConditionsComfort  
Time TempWeatherWind HumidityBarometerVisibility
12:36 AM
Tue, Mar 3
39 °FClear.No wind61%30.31 "Hg10 mi
12:16 AM39 °FClear.No wind56%30.31 "Hg10 mi
11:56 PM
Mon, Mar 2
37 °FClear.5 mph56%30.31 "Hg10 mi
11:36 PM41 °FClear.No wind53%30.31 "Hg10 mi
11:16 PM43 °FClear.6 mph53%30.31 "Hg10 mi
10:56 PM43 °FClear.No wind42%30.31 "Hg10 mi
10:36 PM45 °FClear.No wind46%30.31 "Hg10 mi
10:16 PM45 °FClear.3 mph39%30.31 "Hg10 mi
9:56 PM43 °FClear.No wind42%30.31 "Hg10 mi
9:36 PM45 °FClear.3 mph37%30.30 "Hg10 mi
9:16 PM45 °FClear.5 mph37%30.30 "Hg10 mi
8:56 PM45 °FClear.5 mph46%30.30 "Hg10 mi
8:36 PM45 °FClear.5 mph42%30.30 "Hg10 mi
8:16 PM43 °FClear.3 mph49%30.30 "Hg10 mi
7:56 PM43 °FClear.5 mph49%30.30 "Hg10 mi
7:36 PM45 °FClear.3 mph53%30.30 "Hg10 mi
6:56 PM45 °FClear.6 mph66%30.30 "Hg10 mi
6:36 PM45 °FClear.8 mph66%30.30 "Hg10 mi
6:16 PM46 °FSunny.7 mph57%30.30 "Hg10 mi
5:56 PM46 °FSunny.6 mph57%30.30 "Hg10 mi
5:36 PM46 °FSunny.No wind50%30.30 "Hg3 mi
5:16 PM46 °FSunny.No wind53%30.30 "Hg10 mi
4:56 PM46 °FSunny.3 mph50%30.31 "Hg10 mi
4:36 PM46 °FSunny.7 mph53%30.31 "Hg10 mi
4:16 PM46 °FSunny.6 mph46%30.31 "Hg10 mi
3:56 PM48 °FSunny.8 mph40%30.31 "Hg10 mi
3:36 PM48 °FSunny.7 mph40%30.31 "Hg10 mi
3:16 PM48 °FSunny.10 mph43%30.32 "Hg10 mi
2:56 PM48 °FSunny.10 mph43%30.32 "Hg10 mi
2:36 PM46 °FSunny.9 mph50%30.33 "Hg10 mi
2:16 PM46 °FSunny.8 mph50%30.33 "Hg10 mi
1:56 PM46 °FSunny.9 mph50%30.34 "Hg10 mi
1:36 PM46 °FSunny.9 mph50%30.34 "Hg10 mi
1:16 PM46 °FSunny.12 mph53%30.34 "Hg10 mi
12:56 PM46 °FSunny.10 mph50%30.35 "Hg10 mi
12:36 PM46 °FSunny.10 mph50%30.35 "Hg10 mi
12:16 PM45 °FSunny.12 mph53%30.35 "Hg10 mi
11:56 AM45 °FSunny.14 mph53%30.35 "Hg10 mi
11:36 AM45 °FSunny.14 mph53%30.35 "Hg10 mi
11:16 AM45 °FSunny.12 mph49%30.35 "Hg10 mi
10:56 AM45 °FSunny.8 mph46%30.35 "Hg10 mi
10:36 AM43 °FSunny.7 mph49%30.35 "Hg10 mi
10:16 AM41 °FSunny.3 mph57%30.35 "Hg10 mi
9:56 AM43 °FSunny.12 mph53%30.35 "Hg10 mi
9:36 AM43 °FSunny.8 mph49%30.35 "Hg10 mi
9:16 AM43 °FSunny.10 mph53%30.35 "Hg10 mi
8:56 AM43 °FSunny.12 mph49%30.35 "Hg10 mi
8:36 AM41 °FSunny.10 mph53%30.35 "Hg10 mi
8:16 AM41 °FSunny.7 mph57%30.34 "Hg10 mi
7:56 AM43 °FSunny.7 mph53%30.34 "Hg10 mi
7:36 AM43 °FSunny.7 mph49%30.34 "Hg10 mi
7:16 AM41 °FClear.6 mph49%30.33 "Hg10 mi
6:56 AM41 °FClear.3 mph53%30.33 "Hg10 mi
6:36 AM43 °FClear.6 mph57%30.34 "Hg10 mi
6:16 AM43 °FClear.12 mph61%30.34 "Hg10 mi
5:56 AM43 °FClear.13 mph57%30.34 "Hg10 mi
5:36 AM41 °FClear.6 mph57%30.35 "Hg10 mi
5:16 AM43 °FClear.7 mph57%30.34 "Hg10 mi
4:56 AM43 °FClear.6 mph57%30.34 "Hg10 mi
4:36 AM43 °FClear.14 mph57%30.33 "Hg10 mi
4:16 AM43 °FClear.10 mph61%30.34 "Hg10 mi
3:56 AM43 °FClear.5 mph57%30.35 "Hg10 mi
3:36 AM43 °FClear.5 mph61%30.35 "Hg10 mi
3:16 AM43 °FClear.10 mph61%30.35 "Hg10 mi
2:56 AM43 °FClear.8 mph61%30.35 "Hg10 mi
2:36 AM45 °FClear.15 mph53%30.35 "Hg10 mi
2:16 AM45 °FClear.15 mph57%30.35 "Hg10 mi
1:56 AM45 °FClear.16 mph57%30.35 "Hg10 mi
1:36 AM45 °FClear.15 mph53%30.34 "Hg10 mi
1:16 AM45 °FClear.10 mph53%30.34 "Hg10 mi
Weather by CustomWeather, © 2015

See weather overviewHow to use our weather pages